Plymouth, MA

5:15 PM EST on November 19, 2017 (GMT -0500)
Plymouth Municipal

Weather History for KPYM - August, 2013

Change the Weather History Date:

Monday, August 5, 2013

  Actual Average Record
Temperature  
Mean Temperature 64 °F -  
Max Temperature 75 °F 82 °F 100 °F (1955)
Min Temperature 54 °F 63 °F 52 °F (1970)
Growing Degree Days 14 (Base 50)    
Moisture  
Dew Point 49 °F    
Average Humidity 61    
Maximum Humidity 90    
Minimum Humidity 29    
Precipitation  
Precipitation 0.00 in - - ()
Sea Level Pressure  
Sea Level Pressure 29.96 in    
Wind  
Wind Speed 7 mph (WNW)    
Max Wind Speed 14 mph    
Max Gust Speed 21 mph    
Visibility 10 miles    
Events      
Averages and records for this station are not official NWS values.
T = Trace of Precipitation, MM = Missing Value Source: NWS Daily Summary

Daily Weather History Graph

Daily Weather History Graph

Search for Another Location

Airport or City:

Trip Planner

Search our weather history database for the weather conditions in past years. The results will help you decide how hot, cold, wet, or windy it might be!

Date:

Astronomy

Aug. 05, 2013 Rise Set
Actual Time 5:40 AM EDT 7:56 PM EDT
Civil Twilight 5:09 AM EDT 8:27 PM EDT
Nautical Twilight 4:31 AM EDT 9:05 PM EDT
Astronomical Twilight 3:49 AM EDT 9:47 PM EDT
Moon 4:33 AM EDT (8/5) 6:54 PM EDT (8/5)
Length of Visible Light 15h 17m
Length of Day
14h 15m
Waning Crescent, 1% of the Moon is Illuminated
Aug 5
Waning Crescent
Aug 6
New
Aug 14
First Quarter
Aug 20
Full
Aug 28
Last Quarter

Hourly Weather History & Observations

Time (EDT) Temp. Dew Point Humidity Pressure Visibility Wind Dir Wind Speed Gust Speed Precip Events Conditions
12:52 AM 59.0 °F 55.0 °F 87% 29.89 in 10.0 mi WNW 4.6 mph - N/A   Clear
1:52 AM 61.0 °F 52.0 °F 72% 29.89 in 10.0 mi NNW 9.2 mph - N/A   Clear
2:52 AM 59.0 °F 51.1 °F 75% 29.89 in 10.0 mi WNW 5.8 mph - N/A   Clear
3:52 AM 57.0 °F 51.1 °F 81% 29.90 in 10.0 mi West 5.8 mph - N/A   Clear
4:52 AM 57.0 °F 51.1 °F 81% 29.92 in 10.0 mi WNW 6.9 mph - N/A   Clear
5:52 AM 57.0 °F 51.1 °F 81% 29.94 in 10.0 mi WNW 6.9 mph - N/A   Clear
6:52 AM 59.0 °F 51.1 °F 75% 29.96 in 10.0 mi West 6.9 mph - N/A   Clear
7:52 AM 62.1 °F 52.0 °F 70% 29.96 in 10.0 mi WNW 9.2 mph - N/A   Clear
8:52 AM 66.0 °F 52.0 °F 60% 29.96 in 10.0 mi WNW 11.5 mph - N/A   Clear
9:52 AM 69.1 °F 51.1 °F 53% 29.96 in 10.0 mi WNW 13.8 mph - N/A   Clear
10:52 AM 71.1 °F 48.0 °F 44% 29.96 in 10.0 mi WNW 12.7 mph 20.7 mph N/A   Clear
11:52 AM 71.1 °F 46.9 °F 42% 29.96 in 10.0 mi WNW 10.4 mph 20.7 mph N/A   Clear
12:52 PM 72.0 °F 46.0 °F 40% 29.96 in 10.0 mi Variable 6.9 mph - N/A   Clear
1:52 PM 73.9 °F 46.9 °F 38% 29.96 in 10.0 mi WNW 10.4 mph - N/A   Clear
2:52 PM 73.9 °F 46.0 °F 37% 29.95 in 10.0 mi NW 10.4 mph 16.1 mph N/A   Clear
3:52 PM 75.9 °F 45.0 °F 33% 29.95 in 10.0 mi NNW 6.9 mph 16.1 mph N/A   Clear
4:52 PM 75.9 °F 45.0 °F 33% 29.96 in 10.0 mi West 8.1 mph - N/A   Clear
5:52 PM 75.0 °F 41.0 °F 29% 29.97 in 10.0 mi NW 8.1 mph - N/A   Clear
6:52 PM 73.9 °F 43.0 °F 33% 29.99 in 10.0 mi NW 4.6 mph - N/A   Clear
7:52 PM 63.0 °F 50.0 °F 63% 30.01 in 10.0 mi SE 3.5 mph - N/A   Clear
8:52 PM 60.1 °F 52.0 °F 75% 30.03 in 10.0 mi Calm Calm - N/A   Clear
9:52 PM 59.0 °F 51.1 °F 75% 30.04 in 10.0 mi Calm Calm - N/A   Clear
10:52 PM 54.0 °F 50.0 °F 86% 30.04 in 10.0 mi Calm Calm - N/A   Clear
11:52 PM 54.0 °F 51.1 °F 90% 30.05 in 10.0 mi Calm Calm - N/A   Clear